Gao Fen 14-02

operational
NORAD ID: 66175 Int'l Des: 2025-242 Owner: YWZB Country: CN
LEOCIRCULARRETROGRADESSO

Gao Fen 14-02について

説明を読み込み中...

リアルタイム位置

3D地球を読み込み中...

次回通過

高度履歴

Altitude vs Time

uPlot chart will show altitude changes over time

軌道要素

1 66175U 25242A 25349.99591179 .00005757 00000-0 22922-3 0 9997
2 66175 97.4351 61.9904 0001619 98.6494 261.4927 15.25636218 7762
Epoch: Dec 15, 2025 • Age: 11 hours

現在のステータス

高度 508.5 km
速度 7.61 km/s
衛星直下点 -48.23°S, 175.16°W
打ち上げ日 Oct 26, 2025
運用期間 0.1 years
タイプ other

技術仕様

分類 Payload
質量 6500.00 kg
乾燥質量 5500.00 kg
総質量 6500.00 kg
長さ 6.00 m
直径 2.50 m
スパン 15.00 m
形状 Box + 2 Pan
製造者 CAST
バスタイプ GF-14
フェーズステータス In Orbit
所有者/国 YWZB/CN

大規模コンステレーション

Loading constellations...